Location: Chiroubles
(46.1812°N, 4.6660°E)
Time: 11:54:14
(UTC+00:00)

N. Korean satellite - Pass Details

Date: 05 November 2020
Orbit: 453 x 503 km, 97.2° (Epoch: 03 December)

Event Time Altitude Azimuth Distance (km) Brightness Sun altitude
Rises 16:45:45 0° 183° (S) 2,510 10.5 -4.9°
Reaches altitude 10° 16:47:54 10° 192° (SSW) 1,629 9.7 -5.2°
Maximum altitude 16:51:11 38° 262° (W) 728 8.3 -5.8°
Drops below altitude 10° 16:54:27 10° 332° (NNW) 1,619 9.4 -6.3°
Sets 16:56:35 0° 341° (NNW) 2,493 10.2 -6.7°
